Location: Newark
(34.9500°N, 139.9667°E)
Time: 03:45:09
(UTC+00:00)

deb Explorer IX - All Passes

Search period start: 11 December 2019 00:00
Search period end: 21 December 2019 00:00
Orbit: 546 x 1105 km, 38.8° (Epoch: 09 December)

Date Brightness Start Highest point End Pass type
(mag) Time Alt. Az. Time Alt. Az. Time Alt. Az.
11 Dec - 05:45:31 10° SW 05:50:36 47° SSE 05:56:34 10° ENE daylight
11 Dec - 07:31:52 10° W 07:37:43 75° NNW 07:44:32 10° ENE daylight
11 Dec - 09:19:11 10° WNW 09:25:34 64° N 09:32:44 10° E visible
11 Dec - 11:06:27 10° WNW 11:13:22 83° SSW 11:20:45 10° ESE visible
11 Dec - 12:54:15 10° W 13:00:34 33° SW 13:06:56 10° SSE night (unlit)
12 Dec - 05:23:35 10° SW 05:28:32 47° SSE 05:34:19 10° ENE daylight
12 Dec - 07:09:56 10° W 07:15:37 74° NNW 07:22:17 10° ENE daylight
12 Dec - 08:57:11 10° WNW 09:03:25 64° N 09:10:29 10° E visible
12 Dec - 10:44:22 10° WNW 10:51:10 82° SSW 10:58:32 10° ESE visible
12 Dec - 12:32:08 10° W 12:38:21 33° SW 12:44:43 10° SSE visible
13 Dec - 05:01:40 10° SW 05:06:28 47° SSE 05:12:05 10° ENE daylight
13 Dec - 06:48:00 10° W 06:53:30 73° NNW 07:00:01 10° ENE daylight
13 Dec - 08:35:12 10° WNW 08:41:17 63° N 08:48:13 10° E visible
13 Dec - 10:22:19 10° WNW 10:28:59 81° SSW 10:36:17 10° ESE visible
13 Dec - 12:10:03 10° W 12:16:08 32° SW 12:22:27 10° SSE visible
14 Dec - 04:39:45 10° SW 04:44:24 47° SSE 04:49:52 10° ENE daylight
14 Dec - 06:26:05 10° W 06:31:25 72° NNW 06:37:46 10° ENE daylight
14 Dec - 08:13:14 10° WNW 08:19:08 63° N 08:25:57 10° E visible
14 Dec - 10:00:17 10° WNW 10:06:47 80° SSW 10:14:01 10° ESE visible
14 Dec - 11:47:59 10° W 11:53:56 31° SW 12:00:11 10° SSE visible
15 Dec - 04:17:51 10° SW 04:22:22 47° SSE 04:27:39 10° ENE daylight
15 Dec - 06:04:10 10° W 06:09:21 70° NNW 06:15:30 10° ENE daylight
15 Dec - 07:51:16 10° WNW 07:57:01 63° N 08:03:41 10° E visible
15 Dec - 09:38:16 10° WNW 09:44:36 79° SSW 09:51:45 10° ESE visible
15 Dec - 11:25:55 10° W 11:31:43 30° SW 11:37:53 10° SSE visible
16 Dec - 03:55:56 10° SW 04:00:20 47° SSE 04:05:27 10° ENE daylight
16 Dec - 05:42:16 10° W 05:47:17 69° NNW 05:53:15 10° ENE daylight
16 Dec - 07:29:19 10° WNW 07:34:53 62° N 07:41:25 10° E daylight
16 Dec - 09:16:15 10° WNW 09:22:26 78° SSW 09:29:28 10° ESE visible
16 Dec - 11:03:53 10° W 11:09:31 29° SW 11:15:34 10° SSE visible
17 Dec - 03:34:01 10° SW 03:38:19 47° SSE 03:43:16 10° ENE daylight
17 Dec - 05:20:22 10° W 05:25:14 68° NNW 05:31:01 10° ENE daylight
17 Dec - 07:07:23 10° WNW 07:12:48 62° N 07:19:08 10° E daylight
17 Dec - 08:54:16 10° WNW 09:00:16 77° SSW 09:07:11 10° ESE visible
17 Dec - 10:41:52 10° W 10:47:19 28° SW 10:53:15 10° SSE visible
18 Dec - 03:12:06 10° SW 03:16:17 47° SSE 03:21:06 10° ENE daylight
18 Dec - 04:58:28 10° W 05:03:12 66° N 05:08:47 10° ENE daylight
18 Dec - 06:45:27 10° WNW 06:50:42 61° N 06:56:53 10° E daylight
18 Dec - 08:32:17 10° WNW 08:38:07 75° SSW 08:44:54 10° ESE visible
18 Dec - 10:19:53 10° W 10:25:08 27° SW 10:30:53 10° SSE visible
19 Dec - 02:50:10 10° SW 02:54:17 47° SSE 02:58:56 10° ENE daylight
19 Dec - 04:36:34 10° W 04:41:10 65° N 04:46:34 10° ENE daylight
19 Dec - 06:23:32 10° WNW 06:28:37 61° N 06:34:37 10° E daylight
19 Dec - 08:10:18 10° WNW 08:15:58 74° SSW 08:22:36 10° ESE visible
19 Dec - 09:57:54 10° W 10:02:58 26° SW 10:08:32 10° SSE visible
20 Dec - 02:28:14 10° SW 02:32:17 48° SSE 02:36:48 10° ENE daylight
20 Dec - 04:14:40 10° W 04:19:09 64° N 04:24:21 10° ENE daylight
20 Dec - 06:01:37 10° WNW 06:06:32 60° N 06:12:21 10° E daylight
20 Dec - 07:48:21 10° WNW 07:53:50 72° SSW 08:00:18 10° ESE visible
20 Dec - 09:35:57 10° W 09:40:48 25° SW 09:46:09 10° SSE visible
